Kigali, Rwanda

2:10 PM CAT on February 23, 2017 (GMT +0200)
Gregoire Kayibanda

Weather History for HRYR - February, 2013

Change the Weather History Date:

Saturday, February 2, 2013

  Actual Average Record
Temperature  
Mean Temperature 72 °F -  
Max Temperature 81 °F - - ()
Min Temperature 64 °F - - ()
Cooling Degree Days 8    
Growing Degree Days 22 (Base 50)    
Moisture  
Dew Point 66 °F    
Average Humidity 85    
Maximum Humidity 100    
Minimum Humidity 47    
Precipitation  
Precipitation 0.04 in 0.13 in - ()
Sea Level Pressure  
Sea Level Pressure 30.11 in    
Wind  
Wind Speed 3 mph ()    
Max Wind Speed 8 mph    
Max Gust Speed -    
Visibility 5.5 miles    
Events Rain , Thunderstorm    
T = Trace of Precipitation, MM = Missing Value Source: Averaged Metar Reports

Daily Weather History Graph

Daily Weather History Graph

Search for Another Location

Airport or City:

Trip Planner

Search our weather history database for the weather conditions in past years. The results will help you decide how hot, cold, wet, or windy it might be!

Date:

Astronomy

Feb. 02, 2013 Rise Set
Actual Time 6:07 AM CAT 6:19 PM CAT
Civil Twilight 5:45 AM CAT 6:40 PM CAT
Nautical Twilight 5:20 AM CAT 7:05 PM CAT
Astronomical Twilight 4:55 AM CAT 7:31 PM CAT
Moon 11:15 PM CAT (2/2) 10:51 AM CAT (2/2)
Length of Visible Light 12h 54m
Length of Day
12h 11m
Waning Gibbous, 63% of the Moon is Illuminated
Feb 2
Waning Gibbous
Feb 3
Last Quarter
Feb 10
New
Feb 17
First Quarter
Feb 25
Full

Hourly Weather History & Observations

Time (CAT) Temp. Heat Index Dew Point Humidity Pressure Visibility Wind Dir Wind Speed Gust Speed Precip Events Conditions
2:00 AM 66.2 °F - 66.2 °F 100% 30.09 in 5.0 mi South 4.6 mph - N/A   Mostly Cloudy
5:00 AM 64.4 °F - 64.4 °F 100% 30.12 in 4.3 mi NE 4.6 mph - N/A   Scattered Clouds
6:00 AM 64.4 °F - 64.4 °F 100% 30.12 in 4.3 mi NE 4.6 mph - N/A   Scattered Clouds
8:00 AM 69.8 °F - 68.0 °F 94% 30.18 in 3.1 mi Calm Calm - N/A   Mostly Cloudy
8:30 AM 69.8 °F - 68.0 °F 94% 30.18 in 4.3 mi Calm Calm - N/A   Mostly Cloudy
9:00 AM 69.8 °F - 68.0 °F 94% 30.18 in 4.3 mi Calm Calm - N/A   Mostly Cloudy
9:30 AM 73.4 °F - 66.2 °F 78% 30.15 in 5.0 mi South 3.5 mph - N/A   Mostly Cloudy
10:00 AM 73.4 °F - 64.4 °F 73% 30.15 in 6.2 mi SSE 3.5 mph - N/A   Mostly Cloudy
10:30 AM 77.0 °F - 66.2 °F 69% 30.15 in 6.2 mi East 3.5 mph - N/A   Mostly Cloudy
11:30 AM 77.0 °F - 66.2 °F 69% 30.12 in 6.2 mi SSW 6.9 mph - N/A   Mostly Cloudy
12:00 PM 80.6 °F 82.7 °F 66.2 °F 61% 30.09 in 6.2 mi Calm Calm - N/A   Mostly Cloudy
12:30 PM 78.8 °F - 64.4 °F 61% 30.09 in 6.2 mi ESE 6.9 mph - N/A   Mostly Cloudy
1:00 PM 80.6 °F 82.7 °F 66.2 °F 61% 30.06 in 6.2 mi ESE 8.1 mph - N/A   Mostly Cloudy
2:00 PM 81 °F - 64 °F 47%  in 6 mi NE 3.5 mph - -   Scattered Clouds
2:00 PM 80.6 °F 81.8 °F 62.6 °F 54% 30.09 in 6.2 mi NE 3.5 mph - N/A   Mostly Cloudy
3:00 PM 77.0 °F - 64.4 °F 65% 30.01 in 6.2 mi NNW 3.5 mph - N/A Thunderstorm Thunderstorm
4:00 PM 69.8 °F - 66.2 °F 88% 30.01 in 6.2 mi SW 6.9 mph - N/A   Mostly Cloudy
5:00 PM 68.0 °F - 66.2 °F 94% 30.04 in 6.2 mi WSW 6.9 mph - N/A Rain , Thunderstorm Light Thunderstorms and Rain
6:00 PM 69.8 °F - 66.2 °F 88% 30.06 in 6.2 mi SSW 4.6 mph - N/A Thunderstorm Thunderstorm
6:30 PM 68.0 °F - 66.2 °F 94% 30.06 in 6.2 mi SW 6.9 mph - N/A Thunderstorm Thunderstorm
7:00 PM 68.0 °F - 66.2 °F 94% 30.06 in 6.2 mi SW 3.5 mph - N/A Thunderstorm Thunderstorm
7:30 PM 68.0 °F - 66.2 °F 94% 30.09 in 6.2 mi ESE 4.6 mph - N/A Thunderstorm Thunderstorm
8:00 PM 67 °F - 67 °F 100%  in 5 mi East 3.5 mph - - Rain , Thunderstorm Thunderstorms and Rain
8:00 PM 68.0 °F - 68.0 °F 100% 30.09 in 5.0 mi East 3.5 mph - N/A Rain , Thunderstorm Light Thunderstorms and Rain
9:00 PM 66.2 °F - 66.2 °F 100% 30.12 in 5.0 mi SSW 5.8 mph - N/A Rain , Thunderstorm Light Thunderstorms and Rain
9:30 PM 64.4 °F - 64.4 °F 100% 30.12 in 5.0 mi SW 5.8 mph - N/A Rain , Thunderstorm Light Thunderstorms and Rain
10:00 PM 64.4 °F - 64.4 °F 100% 30.15 in 5.0 mi Calm Calm - N/A Rain , Thunderstorm Light Thunderstorms and Rain
10:30 PM 64.4 °F - 64.4 °F 100% 30.15 in 5.0 mi Calm Calm - N/A Rain , Thunderstorm Light Thunderstorms and Rain
11:00 PM 64.4 °F - 64.4 °F 100% 30.15 in 5.0 mi Calm Calm - N/A Rain , Thunderstorm Light Thunderstorms and Rain